FOX-1A (AO-85)

Last updated on Thu Oct 30 2025 00:03:10 GMT+0000 (Coordinated Universal Time)

1 40967U 15058D 25302.29163260 .00003387 00000+0 31242-3 0 9991 2 40967 64.7751 275.6466 0140198 146.6923 214.3110 14.89214185 79166
UTC large
Height (km)
Speed (km/s)
/
Latitude / Longitude
Inclination (degrees)
Orbital Period (minutes)
Azimuth
Elevation
Range (km)
Doppler Factor

Next 0 passes for location: London (51.5072 / 0.1276)

Sorry there are no passes over London.